This is the latest recevied weather packets stored in our database for station/object KB0BDN-13. If no packets are shown the sender has not sent any weather packets the latest 10 day(s).
| Time | Temp. | Humidity | Pressure | Rain* | Wind** | Luminosity | Snow |
|---|---|---|---|---|---|---|---|
| 1787941751 | 21.11° C | 54% | 1013.7 hPa | 0 mm | - | - | - |
| 1787940994 | 20.56° C | 55% | 1013.7 hPa | 0 mm | - | - | - |
| 1787940851 | 20.56° C | 55% | 1013.7 hPa | 0 mm | - | - | - |
| 1787940094 | 20.56° C | 56% | 1013.7 hPa | 0 mm | - | - | - |
| 1787939951 | 20.56° C | 55% | 1013.9 hPa | 0 mm | - | - | - |
| 1787939194 | 20° C | 57% | 1013.9 hPa | 0 mm | - | - | - |
| 1787939052 | 20° C | 56% | 1014.3 hPa | 0 mm | - | - | - |
| 1787938294 | 19.44° C | 58% | 1014.3 hPa | 0 mm | - | - | - |
| 1787938152 | 19.44° C | 60% | 1014.3 hPa | 0 mm | - | - | - |
| 1787937394 | 18.89° C | 60% | 1014.3 hPa | 0 mm | - | - | - |
| 1787937252 | 18.89° C | 59% | 1014.4 hPa | 0 mm | - | - | - |
| 1787936494 | 18.33° C | 60% | 1014.4 hPa | 0 mm | - | - | - |
| 1787936352 | 18.89° C | 60% | 1014.4 hPa | 0 mm | - | - | - |
| 1787935594 | 18.89° C | 59% | 1014.4 hPa | 0 mm | - | - | - |
| 1787935453 | 18.89° C | 60% | 1014.4 hPa | 0 mm | - | - | - |
| 1787934694 | 18.33° C | 60% | 1014.4 hPa | 0 mm | - | - | - |
| 1787934552 | 18.33° C | 60% | 1014.4 hPa | 0 mm | - | - | - |
| 1787933794 | 18.33° C | 60% | 1014.4 hPa | 0 mm | - | - | - |
| 1787932894 | 18.89° C | 59% | 1014.8 hPa | 0 mm | - | - | - |
| 1787932752 | 18.89° C | 58% | 1014.9 hPa | 0 mm | - | - | - |
| 1787931994 | 17.78° C | 61% | 1014.9 hPa | 0 mm | - | - | - |
| 1787931852 | 17.78° C | 60% | 1015.1 hPa | 0 mm | - | - | - |
| 1787931094 | 17.22° C | 64% | 1015.1 hPa | 0 mm | - | - | - |
| 1787930194 | 17.22° C | 67% | 1014.9 hPa | 0 mm | - | - | - |
| 1787930052 | 17.22° C | 67% | 1014.9 hPa | 0 mm | - | - | - |
* Rain latest hour (hover to see other rain measurements)
** Current wind speed in m/s (hover to see current wind gust speed)